Terug naar catalogus

MEASAT 3B

ActiefCommunicatieGEO
NORAD 40147·PAYLOAD·🇲🇾 Malaysia

Gelanceerd Sep 11, 2014 vanaf Guiana Space Centre

Loading…

TLE

VersSource: Space-Track

Epoch: Sep 14, 2026, 14:14 UTC

1 40147U 14054B   26257.59330109 -.00000250  00000-0  00000-0 0  9990
2 40147   0.0385  35.3200 0001315  75.4867 187.8850  1.00271665 43815

Volg MEASAT 3B in realtime met AllMySat

Download on the App Store